Flag for Moldova Weather past 2 weeks in Bălți, Moldova

Now
59 °F

Sunny.


Feels Like: 56 °F
Forecast: 55 / 74 °F
Wind: 14 mph from South

Location: Baltsi-Leadoveni - The North of Moldova

Current Time: Apr 27, 2015 at 9:14:09 AM

Latest Report: Apr 27, 2015 at 9:00 AM


Visibility: 10 mi

Pressure: 29.89 "Hg

Humidity: 68%

Dew point: 48 °F

Location of BălțiLocation

Historic Weather in Bălți — Graph

°F

Bălți temperature yesterday

Maximum temperature yesterday: 73 °F (at 4:00 PM)
Minimum temperature yesterday: 48 °F (at 6:00 AM)
Average temperature yesterday: 62 °F

Past Weeks' High & Low Weather Summary

 TemperatureHumidityPressure
High75 °F (Apr 16, 3:00 PM)100% (Apr 18, 2:00 AM)30.27 "Hg (Apr 18, 2:00 AM)
Low34 °F (Apr 21, 5:30 AM)17% (Apr 12, 3:00 PM)29.65 "Hg (Apr 20, 12:00 PM)
Average52 °F58%29.96 "Hg
* Reported Apr 12 8:00 AM — Apr 27 8:00 AM, Bălți, Weather by CustomWeather, © 2015

Note: Actual official high and low records may vary slightly from our data, if they occured in-between our weather recording intervals... More about our weather records

Advertising

Bălți weather history for previous 24 hours

 ConditionsComfort  
Time TempWeatherWind HumidityBarometerVisibility
8:00 AM
Mon, Apr 27
55 °FCool.8 mph72%29.89 "HgN/A
7:30 AM54 °FCool.10 mph72%29.86 "HgN/A
7:00 AM54 °FCool.7 mph72%29.86 "HgN/A
6:00 AM52 °FCool.12 mph77%29.86 "HgN/A
5:30 AM54 °FCool.15 mph72%29.86 "HgN/A
5:00 AM54 °FCool.14 mph72%29.86 "HgN/A
4:00 AM55 °FCool.16 mph67%29.86 "HgN/A
3:30 AM55 °FCool.16 mph67%29.86 "HgN/A
2:00 AM55 °FCool.16 mph67%29.86 "HgN/A
1:00 AM57 °FCool.15 mph63%29.86 "HgN/A
12:30 AM59 °FRefreshingly cool.15 mph55%29.86 "HgN/A
12:00 AM57 °FRefreshingly cool.12 mph55%29.86 "HgN/A
11:00 PM
Sun, Apr 26
61 °FRefreshingly cool.10 mph45%29.86 "HgN/A
10:30 PM61 °FRefreshingly cool.12 mph48%29.86 "HgN/A
10:00 PM61 °FRefreshingly cool.10 mph45%29.86 "HgN/A
9:00 PM64 °FMild.9 mph43%29.86 "HgN/A
8:00 PM66 °FMild.9 mph40%29.86 "HgN/A
7:00 PM70 °FMild.8 mph38%29.86 "HgN/A
6:30 PM72 °FMild.9 mph33%29.86 "HgN/A
6:00 PM73 °FPassing clouds.9 mph31%29.86 "HgN/A
5:30 PM73 °FPassing clouds.9 mph33%29.86 "HgN/A
5:00 PM73 °FPassing clouds.7 mph33%29.86 "HgN/A
4:00 PM73 °FPassing clouds.7 mph31%29.86 "HgN/A
3:00 PM72 °FPassing clouds.8 mph36%29.89 "HgN/A
2:00 PM72 °FPassing clouds.7 mph44%29.89 "HgN/A
1:30 PM70 °FPassing clouds.9 mph46%29.92 "HgN/A
1:00 PM70 °FPassing clouds.8 mph46%29.92 "HgN/A
12:00 PM66 °FPassing clouds.8 mph49%29.95 "HgN/A
11:00 AM63 °FPassing clouds.8 mph59%29.95 "HgN/A
10:00 AM57 °FSunny.10 mph67%29.95 "Hg10 mi
9:00 AM55 °FSunny.8 mph72%29.95 "Hg10 mi
Weather by CustomWeather, © 2015

See weather overviewHow to use our weather pages